Location: Bucquoy
(50.1391°N, 2.7097°E)
Time: 03:52:17
(UTC+00:00)

EO 1 Del DPAF - Pass Details

Date: 06 May 2021
Orbit: 505 x 510 km, 98.0° (Epoch: 22 June)

Event Time Altitude Azimuth Distance (km) Brightness Sun altitude
Rises 00:13:44 0° 14° (NNE) 2,636 8.2 -23.0°
Reaches altitude 10° 00:15:50 10° 16° (NNE) 1,743 7.0 -23.0°
Enters shadow 00:19:19 74° 44° (NE) 537 3.2 -22.9°
